[[{"header":{"parameterUnit":"m.s-1","parameterCategory":2,"la1":30.2991,"la2":30.254,"lo1":-89.0895,"lo2":-89.0444,"dy":0.0017,"dx":0.0017,"nx":28,"ny":28,"refTime":"2024-04-17T21:00:00:Z","depth":"0","parameterNumber":2,"parameterNumberName":"U-component_of_CURRENTS"},"data":[0,0,0,0,0,0,0,0,0,0,0,0,0,0,0,0,0,0,0,0,0,0,0,0,0,0,0,0,0,0,0,0,0,0,0,0,0,0,0,0,0,0,0,0,0,0,0,0,0,0,0,0,0,0,0,0,0,0,-0.2024,-0.2024,0,-0.2003,-0.2003,-0.2002,-0.1969,-0.1969,-0.1969,-0.1969,-0.1904,-0.1902,-0.19,0,0,0,0,0,0,0,0,0,0,0,0,0,-0.1907,-0.191,-0.2024,-0.2024,-0.2024,-0.2004,-0.2003,-0.2002,-0.1969,-0.1969,-0.1969,-0.1969,-0.1904,-0.1902,-0.19,0,0,0,0,0,0,0,0,0,0,0,0,0,-0.1923,-0.1911,-0.2024,-0.2011,-0.201,-0.2004,-0.2003,-0.2001,-0.1969,-0.1969,-0.1969,-0.1969,-0.1905,-0.1903,-0.19,-0.1882,0,0,-0.1892,-0.1891,0,0,0,0,0,0,0,0,-0.1922,-0.1927,-0.2012,-0.2012,-0.2011,-0.1995,-0.1938,-0.1962,-0.1969,-0.1977,-0.1969,-0.1969,-0.1935,-0.193,-0.1916,-0.1879,-0.1876,-0.1892,-0.189,-0.1889,-0.1888,0,0,0,0,0,0,0,-0.1921,-0.1927,-0.2008,-0.2013,-0.2012,-0.1963,-0.1966,-0.1941,-0.1949,-0.1976,-0.1976,-0.1985,-0.1933,-0.1919,-0.1914,-0.1875,-0.1892,-0.1889,-0.1888,-0.1887,-0.1812,-0.1812,0,0,0,0,0,0,-0.1945,-0.1927,-0.2009,-0.2009,-0.1974,-0.1966,-0.1969,-0.1994,-0.1951,-0.1946,-0.1985,-0.1983,-0.1923,-0.1918,-0.1912,-0.1912,-0.1889,-0.1886,-0.1885,-0.1813,-0.1812,-0.1812,0,0,0,0,0,0,-0.1943,-0.1954,-0.201,-0.1971,-0.1976,-0.197,-0.1997,-0.1994,-0.1984,-0.1959,-0.1952,-0.198,-0.1923,-0.1916,-0.1883,-0.1908,-0.1885,-0.1883,-0.1813,-0.1813,-0.1812,-0.1897,0,0,0,0,0,0,-0.194,-0.1953,-0.1966,-0.1974,-0.1979,-0.2005,-0.1998,-0.1994,-0.1993,-0.1991,-0.1953,-0.1947,-0.1923,-0.1887,-0.1881,-0.1904,-0.1881,-0.1814,-0.1813,-0.1812,-0.1894,-0.1899,-0.1903,0,0,0,0,0,-0.1936,-0.1956,-0.1968,-0.1977,-0.2003,-0.2006,-0.2003,-0.1993,-0.1993,-0.1984,-0.1956,-0.1948,-0.1878,-0.1884,-0.1877,-0.1901,-0.1814,-0.1813,-0.1812,-0.1893,-0.1898,-0.1903,0,0,0,0,0,0,-0.1901,-0.1956,-0.1968,-0.2001,-0.2006,-0.2003,-0.1996,-0.1997,-0.1969,-0.1965,-0.1938,-0.1929,-0.1911,-0.1884,-0.1891,-0.1873,-0.1847,-0.1845,-0.191,-0.1916,-0.192,-0.1968,-0.1878,0,0,0,0,0,-0.1907,-0.1941,-0.1971,-0.1992,-0.2,-0.2,-0.1998,-0.1997,-0.1983,-0.1971,-0.1949,-0.1921,-0.1901,-0.189,-0.1859,-0.1848,-0.1826,-0.1857,-0.1861,-0.1865,-0.1896,-0.1904,-0.1913,-0.1809,-0.1809,-0.1809,0,0,-0.1895,-0.1932,-0.1947,-0.1987,-0.1988,-0.2009,-0.1996,-0.2,-0.2021,-0.1968,-0.197,-0.1932,-0.1897,-0.1885,-0.1876,-0.1868,-0.1866,-0.1864,-0.1869,-0.1898,-0.1904,-0.1915,-0.1924,-0.1809,-0.1809,-0.1809,0,0,-0.1885,-0.1926,-0.1946,-0.1969,-0.1993,-0.2003,-0.2012,-0.2016,-0.2019,-0.2009,-0.1987,-0.1971,-0.1921,-0.1922,-0.1913,-0.1922,-0.1885,-0.1899,-0.1971,-0.1977,-0.1987,-0.1996,-0.1917,-0.1919,-0.1908,-0.1908,-0.1908,0,-0.186,-0.1923,-0.1943,-0.1975,-0.2013,-0.2011,-0.2047,-0.2046,-0.2038,-0.2056,-0.2015,-0.1985,-0.1951,-0.1979,-0.1978,-0.194,-0.1904,-0.196,-0.1988,-0.1997,-0.2005,-0.1922,-0.1923,-0.1912,-0.1911,-0.1911,-0.1911,0,-0.1872,-0.1931,-0.1944,-0.2006,-0.2033,-0.2064,-0.2095,-0.2108,-0.2108,-0.2113,-0.2121,-0.2069,-0.2059,-0.2042,-0.2012,-0.2055,-0.1993,-0.1992,-0.1988,-0.2021,-0.193,-0.1929,-0.1918,-0.1916,-0.1915,-0.1914,0,0,-0.1797,-0.1932,-0.1935,-0.2004,-0.2072,-0.2099,-0.2149,-0.2202,-0.2229,-0.2213,-0.2241,-0.2223,-0.2195,-0.2183,-0.2146,-0.2156,-0.2147,-0.2103,-0.2101,-0.2046,-0.2097,-0.2015,-0.2005,-0.2157,-0.2159,-0.216,-0.1989,0,-0.1801,-0.1904,-0.1964,-0.206,-0.213,-0.2184,-0.2227,-0.2272,-0.2277,-0.2285,-0.2281,-0.2263,-0.2249,-0.222,-0.2243,-0.2156,-0.2159,-0.219,-0.2056,-0.2051,-0.1995,-0.2009,-0.1915,-0.1755,-0.1988,-0.1988,-0.1988,0,-0.1776,-0.1885,-0.1986,-0.215,-0.2177,-0.2215,-0.2313,-0.2349,-0.2377,-0.2371,-0.2387,-0.2349,-0.2351,-0.232,-0.2264,-0.2279,-0.2214,-0.2157,-0.2149,-0.206,-0.1971,-0.1769,-0.1744,-0.1735,-0.1986,-0.1986,-0.1986,0,-0.1723,-0.1888,-0.1988,-0.2043,-0.2202,-0.2253,-0.2317,-0.2369,-0.2359,-0.2411,-0.2357,-0.2406,-0.2326,-0.2333,-0.2214,-0.2237,-0.2118,-0.2126,-0.1998,-0.1986,-0.1876,-0.1854,-0.1858,-0.2128,-0.2128,-0.2129,-0.2129,0,-0.1709,-0.1782,-0.1975,-0.2034,-0.2116,-0.2248,-0.2269,-0.2336,-0.2352,-0.2314,-0.2378,-0.2315,-0.2326,-0.2247,-0.2215,-0.2074,-0.2117,-0.2016,-0.1963,-0.1891,-0.1873,-0.1837,-0.1862,-0.2122,-0.2124,-0.2125,-0.2126,0,-0.1579,-0.1721,-0.1827,-0.2031,-0.2077,-0.2117,-0.2177,-0.2184,-0.2232,-0.2172,-0.2171,-0.2179,-0.211,-0.2087,-0.2024,-0.1993,-0.1882,-0.1875,-0.1748,-0.1686,-0.1592,-0.1624,-0.1564,-0.1527,-0.1715,-0.1712,-0.171,0,-0.1518,-0.157,-0.1751,-0.1782,-0.1855,-0.1931,-0.1957,-0.2076,-0.2068,-0.207,-0.2023,-0.1966,-0.1893,-0.1764,-0.1748,-0.1676,-0.1728,-0.1553,-0.1628,-0.1585,-0.1581,-0.1614,-0.1591,-0.1465,-0.1461,-0.1457,-0.1455,0,-0.1381,-0.142,-0.1492,-0.1567,-0.1621,-0.1672,-0.174,-0.1727,-0.1847,-0.1803,-0.1754,-0.1709,-0.1616,-0.152,-0.1458,-0.1431,-0.1525,-0.1483,-0.1496,-0.1449,-0.1429,-0.1365,-0.1523,-0.1425,-0.1428,-0.143,-0.1432,-0.1433,-0.1203,-0.1189,-0.1262,-0.1302,-0.1356,-0.1404,-0.136,-0.1452,-0.1428,-0.1363,-0.149,-0.1371,-0.1365,-0.1272,-0.1249,-0.1196,-0.1276,-0.1188,-0.1233,-0.1272,-0.1258,-0.1323,-0.1151,-0.1153,-0.1154,-0.1155,-0.1156,0,-0.1004,-0.0996,-0.1008,-0.1041,-0.1006,-0.1136,-0.1176,-0.1102,-0.103,-0.1083,-0.103,-0.1047,-0.0989,-0.1012,-0.1005,-0.097,-0.0984,-0.0971,-0.1019,-0.1013,-0.1095,-0.1109,-0.0854,-0.0854,-0.0854,-0.0854,-0.0854,-0.0854,-0.0893,-0.0821,-0.0835,-0.0702,-0.071,-0.0639,-0.0634,-0.0578,-0.0566,-0.0512,-0.0518,-0.0559,-0.0747,-0.0917,-0.0919,-0.0886,-0.0911,-0.0857,-0.0919,-0.1006,-0.1031,-0.1055,-0.1077,-0.0818,-0.0819,-0.0787,-0.0787,-0.0787]},{"header":{"parameterUnit":"m.s-1","parameterCategory":2,"la1":30.2991,"la2":30.254,"lo1":-89.0895,"lo2":-89.0444,"dy":0.0017,"dx":0.0017,"nx":28,"ny":28,"refTime":"2024-04-17T21:00:00:Z","depth":"0","parameterNumber":3,"parameterNumberName":"V-component_of_CURRENTS"},"data":[0,0,0,0,0,0,0,0,0,0,0,0,0,0,0,0,0,0,0,0,0,0,0,0,0,0,0,0,0,0,0,0,0,0,0,0,0,0,0,0,0,0,0,0,0,0,0,0,0,0,0,0,0,0,0,0,0,0,0.0183,0.0184,0,0.0264,0.0265,0.0266,0.0303,0.0303,0.0303,0.0302,0.0406,0.0409,0.0412,0,0,0,0,0,0,0,0,0,0,0,0,0,0.0122,0.0122,0.0183,0.0184,0.0185,0.0264,0.0265,0.0266,0.0303,0.0303,0.0303,0.0302,0.0405,0.0409,0.0412,0,0,0,0,0,0,0,0,0,0,0,0,0,0.017,0.0122,0.0183,0.0213,0.0216,0.0264,0.0265,0.0267,0.0303,0.0303,0.0303,0.0302,0.0404,0.0408,0.0412,0.0441,0,0,0.0425,0.0427,0,0,0,0,0,0,0,0,0.0167,0.0172,0.0207,0.0211,0.0215,0.0273,0.0282,0.0326,0.0303,0.027,0.0302,0.0302,0.0364,0.0371,0.0387,0.0446,0.045,0.0426,0.0428,0.043,0.0431,0,0,0,0,0,0,0,0.0163,0.0169,0.0215,0.0208,0.0213,0.0244,0.025,0.029,0.0317,0.0273,0.0276,0.0285,0.0366,0.0382,0.0389,0.0452,0.0426,0.0429,0.0432,0.0434,0.0524,0.0524,0,0,0,0,0,0,0.0151,0.0166,0.0212,0.0217,0.019,0.0245,0.0251,0.0254,0.0316,0.0325,0.0285,0.0286,0.0375,0.0384,0.0393,0.0412,0.043,0.0434,0.0437,0.0524,0.0524,0.0524,0,0,0,0,0,0,0.0149,0.0154,0.0209,0.0194,0.0203,0.0245,0.0249,0.0256,0.0273,0.0325,0.0335,0.0294,0.0375,0.0387,0.0423,0.0417,0.0436,0.044,0.0524,0.0524,0.0524,0.0462,0,0,0,0,0,0,0.0147,0.0152,0.0147,0.0193,0.0203,0.0233,0.0249,0.0258,0.0279,0.0281,0.0336,0.0346,0.0376,0.0417,0.0427,0.0423,0.0443,0.0525,0.0524,0.0524,0.0464,0.046,0.0456,0,0,0,0,0,0.0144,0.0137,0.0146,0.0152,0.0195,0.0233,0.0242,0.0272,0.0279,0.0286,0.0319,0.0344,0.0422,0.042,0.0433,0.043,0.0525,0.0524,0.0524,0.0466,0.0461,0.0456,0,0,0,0,0,0,0.0104,0.0141,0.0152,0.0155,0.019,0.0239,0.0246,0.027,0.0302,0.0302,0.0348,0.036,0.0389,0.0419,0.0416,0.0455,0.0476,0.0478,0.0427,0.0423,0.0419,0.0397,0.0447,0,0,0,0,0,0.0093,0.0097,0.0142,0.0142,0.0158,0.0202,0.022,0.0243,0.0279,0.0293,0.0331,0.0367,0.0398,0.0417,0.0453,0.0479,0.0502,0.0483,0.0479,0.0475,0.0467,0.0484,0.048,0.0523,0.0523,0.0523,0,0,0.0075,0.0097,0.0097,0.0134,0.0161,0.0177,0.0212,0.0237,0.0247,0.03,0.0321,0.0358,0.0402,0.0426,0.0442,0.0451,0.0479,0.0475,0.0471,0.0465,0.0483,0.0479,0.0475,0.0523,0.0523,0.0523,0,0,0.0044,0.0063,0.0058,0.0085,0.0125,0.0156,0.0161,0.0212,0.0231,0.0262,0.0295,0.0324,0.0381,0.0404,0.0424,0.042,0.0457,0.0434,0.0395,0.0412,0.0408,0.0405,0.0439,0.044,0.0429,0.0429,0.0429,0,0.0018,0.0018,0.0063,0.007,0.0081,0.0142,0.014,0.0174,0.0228,0.0238,0.0259,0.0325,0.0366,0.0384,0.0382,0.0409,0.043,0.0409,0.0404,0.0402,0.04,0.0436,0.0437,0.0426,0.0427,0.0427,0.0427,0,-0.0011,-0.0011,-0.001,0.0013,0.0036,0.0045,0.0098,0.0122,0.0153,0.0185,0.0216,0.0271,0.0305,0.0325,0.0355,0.0359,0.0384,0.0397,0.0412,0.0391,0.0432,0.0434,0.0422,0.0423,0.0424,0.0425,0,0,-0.0073,-0.0042,-0.0043,-0.0049,0.0003,0.0014,0.0038,0.007,0.0076,0.0131,0.0137,0.0193,0.0224,0.0248,0.029,0.0308,0.0322,0.0341,0.0343,0.0367,0.037,0.0419,0.0427,0.033,0.033,0.033,0.0407,0,-0.0115,-0.0135,-0.0097,-0.0114,-0.0121,-0.0061,-0.0049,-0.001,0.0038,0.0065,0.0121,0.0149,0.0195,0.0211,0.0235,0.0306,0.0323,0.03,0.0394,0.0397,0.0435,0.0429,0.045,0.0523,0.041,0.041,0.0411,0,-0.0154,-0.0167,-0.0196,-0.0192,-0.0189,-0.0182,-0.0156,-0.0133,-0.0069,-0.0035,0.0008,0.0065,0.0113,0.0149,0.0242,0.0225,0.0285,0.0337,0.0342,0.0407,0.045,0.0525,0.0532,0.0628,0.0415,0.0415,0.0414,0,-0.023,-0.0234,-0.0269,-0.0266,-0.0246,-0.0246,-0.0227,-0.0168,-0.0147,-0.0091,-0.0063,-0.0004,0.0047,0.0112,0.0243,0.0235,0.0351,0.0355,0.0453,0.0458,0.0505,0.0514,0.0607,0.0399,0.0398,0.0398,0.0398,0,-0.0289,-0.0314,-0.0308,-0.033,-0.0365,-0.0319,-0.0327,-0.0291,-0.0234,-0.019,-0.0121,-0.0061,0.004,0.0136,0.0223,0.0363,0.0339,0.0446,0.0477,0.0487,0.0493,0.0603,0.0635,0.0401,0.04,0.04,0.0399,0,-0.0348,-0.0349,-0.0387,-0.0394,-0.0397,-0.0415,-0.0383,-0.0373,-0.0314,-0.0248,-0.023,-0.0103,0.0033,0.0147,0.0282,0.0358,0.053,0.0518,0.0537,0.0568,0.0731,0.0758,0.0861,0.0919,0.0623,0.0625,0.0626,0,-0.037,-0.0403,-0.0438,-0.0456,-0.0455,-0.047,-0.0467,-0.0422,-0.0379,-0.0246,-0.0204,-0.0069,0.007,0.028,0.0415,0.0563,0.062,0.0664,0.0644,0.0746,0.0799,0.0801,0.0842,0.069,0.0692,0.0694,0.0695,0,-0.0409,-0.0423,-0.045,-0.0501,-0.0514,-0.0527,-0.05,-0.0472,-0.0372,-0.0262,-0.0077,0.0037,0.0215,0.0413,0.057,0.0647,0.073,0.0699,0.0793,0.0849,0.0867,0.0936,0.0648,0.0708,0.0706,0.0705,0.0705,0.0704,-0.0413,-0.0443,-0.0476,-0.0519,-0.0542,-0.0527,-0.05,-0.0404,-0.0278,-0.0028,0.005,0.0303,0.0415,0.0648,0.0742,0.0906,0.0859,0.0951,0.0974,0.0967,0.1022,0.0772,0.0871,0.0871,0.087,0.087,0.087,0,-0.0401,-0.0436,-0.0485,-0.0522,-0.0537,-0.0547,-0.048,-0.0388,-0.017,0.0087,0.0324,0.0613,0.0794,0.0901,0.1079,0.118,0.1178,0.1218,0.1222,0.125,0.1027,0.1029,0.1181,0.1181,0.1181,0.1181,0.1181,0.118,-0.0391,-0.043,-0.0466,-0.0491,-0.051,-0.0478,-0.0417,-0.0226,-0.0037,0.038,0.0664,0.0849,0.0956,0.1224,0.1415,0.1423,0.151,0.148,0.154,0.1384,0.136,0.1337,0.1349,0.1565,0.1565,0.175,0.1751,0.1753]}],[{"header":{"parameterUnit":"m.s-1","parameterCategory":2,"la1":30.2991,"la2":30.254,"lo1":-89.0895,"lo2":-89.0444,"dy":0.0017,"dx":0.0017,"nx":28,"ny":28,"refTime":"2024-04-17T21:00:00:Z","depth":"2","parameterNumber":2,"parameterNumberName":"U-component_of_CURRENTS"},"data":[0,0,0,0,0,0,0,0,0,0,0,0,0,0,0,0,0,0,0,0,0,0,0,0,0,0,0,0,0,0,0,0,0,0,0,0,0,0,0,0,0,0,0,0,0,0,0,0,0,0,0,0,0,0,0,0,0,0,-0.1962,-0.1962,0,-0.1952,-0.1951,-0.1951,-0.1914,-0.1914,-0.1913,-0.1913,-0.1822,-0.182,-0.1818,0,0,0,0,0,0,0,0,0,0,0,0,0,-0.1871,-0.1873,-0.1962,-0.1962,-0.1962,-0.1952,-0.1951,-0.195,-0.1914,-0.1914,-0.1913,-0.1913,-0.1822,-0.182,-0.1817,0,0,0,0,0,0,0,0,0,0,0,0,0,-0.1886,-0.1873,-0.1962,-0.1947,-0.1946,-0.1952,-0.1951,-0.195,-0.1914,-0.1914,-0.1913,-0.1913,-0.1823,-0.182,-0.1817,-0.1808,0,0,-0.1808,-0.1806,0,0,0,0,0,0,0,0,-0.1885,-0.1889,-0.1949,-0.1948,-0.1947,-0.1938,-0.1886,-0.1901,-0.1914,-0.1921,-0.1913,-0.1912,-0.1857,-0.1851,-0.1844,-0.1804,-0.18,-0.1807,-0.1805,-0.1804,-0.1803,0,0,0,0,0,0,0,-0.1884,-0.1888,-0.1952,-0.1949,-0.1948,-0.1914,-0.1916,-0.1888,-0.1886,-0.192,-0.1919,-0.1926,-0.1855,-0.1847,-0.1841,-0.1799,-0.1807,-0.1805,-0.1803,-0.1801,-0.1729,-0.1729,0,0,0,0,0,0,-0.1901,-0.1888,-0.1953,-0.1953,-0.192,-0.1917,-0.1918,-0.1937,-0.1888,-0.1883,-0.1926,-0.1924,-0.1853,-0.1845,-0.1838,-0.1817,-0.1804,-0.1801,-0.1799,-0.1729,-0.1729,-0.1729,0,0,0,0,0,0,-0.1899,-0.1908,-0.1953,-0.1923,-0.1927,-0.192,-0.1941,-0.1937,-0.1933,-0.1895,-0.1887,-0.1927,-0.1852,-0.1842,-0.1811,-0.1813,-0.18,-0.1797,-0.1729,-0.1729,-0.1729,-0.1779,0,0,0,0,0,0,-0.1897,-0.1907,-0.1921,-0.1925,-0.193,-0.1951,-0.1942,-0.1938,-0.1941,-0.1938,-0.1893,-0.1884,-0.1851,-0.1816,-0.1808,-0.1809,-0.1794,-0.1729,-0.1729,-0.1729,-0.1778,-0.1781,-0.1784,0,0,0,0,0,-0.1894,-0.192,-0.1922,-0.193,-0.1952,-0.1952,-0.195,-0.1939,-0.1942,-0.1934,-0.1907,-0.1885,-0.1809,-0.1813,-0.1804,-0.1804,-0.1729,-0.1729,-0.1729,-0.1776,-0.1781,-0.1784,0,0,0,0,0,0,-0.1895,-0.192,-0.1921,-0.1956,-0.1951,-0.1948,-0.1951,-0.1947,-0.1922,-0.1923,-0.1884,-0.1872,-0.1841,-0.1818,-0.1824,-0.1782,-0.1766,-0.1764,-0.1805,-0.1809,-0.1812,-0.1842,-0.1792,0,0,0,0,0,-0.1903,-0.1921,-0.1934,-0.1957,-0.1963,-0.1958,-0.1959,-0.1954,-0.1939,-0.1929,-0.1896,-0.1865,-0.1834,-0.1819,-0.1782,-0.1766,-0.1749,-0.1759,-0.1762,-0.1765,-0.1783,-0.1816,-0.1825,-0.1729,-0.1729,-0.1729,0,0,-0.191,-0.1926,-0.1936,-0.1956,-0.1957,-0.1959,-0.1956,-0.1964,-0.196,-0.1923,-0.19,-0.1869,-0.183,-0.1803,-0.1789,-0.1786,-0.1763,-0.1765,-0.1768,-0.1785,-0.1817,-0.1827,-0.1836,-0.1729,-0.1729,-0.1729,0,0,-0.1924,-0.1949,-0.1962,-0.1962,-0.1972,-0.1967,-0.1973,-0.1969,-0.1962,-0.194,-0.1914,-0.1897,-0.1839,-0.1824,-0.1808,-0.181,-0.1774,-0.1788,-0.1835,-0.1867,-0.1876,-0.1884,-0.1792,-0.1792,-0.1797,-0.1797,-0.1797,0,-0.1927,-0.1954,-0.1962,-0.1972,-0.197,-0.1974,-0.1975,-0.1975,-0.1954,-0.1971,-0.1934,-0.1906,-0.1854,-0.1866,-0.1846,-0.182,-0.1795,-0.1826,-0.1875,-0.1883,-0.1891,-0.1795,-0.1795,-0.18,-0.1799,-0.1799,-0.1799,0,-0.1943,-0.1964,-0.1975,-0.1983,-0.1974,-0.1984,-0.1982,-0.1978,-0.1971,-0.1991,-0.1998,-0.1946,-0.1941,-0.1911,-0.1866,-0.1898,-0.1841,-0.1872,-0.1873,-0.1904,-0.1799,-0.1797,-0.1803,-0.1802,-0.1801,-0.1801,0,0,-0.1955,-0.1981,-0.1984,-0.1977,-0.1984,-0.1971,-0.198,-0.2002,-0.2031,-0.2028,-0.206,-0.2016,-0.2035,-0.2017,-0.1979,-0.1989,-0.1962,-0.1948,-0.1949,-0.1867,-0.1947,-0.1877,-0.1867,-0.2019,-0.2021,-0.2023,-0.1823,0,-0.1963,-0.1974,-0.1985,-0.1976,-0.1974,-0.1977,-0.1982,-0.2005,-0.2023,-0.2055,-0.2082,-0.209,-0.2068,-0.2049,-0.2072,-0.1975,-0.1974,-0.2007,-0.1921,-0.1916,-0.1863,-0.1871,-0.1747,-0.156,-0.1821,-0.182,-0.182,0,-0.1961,-0.1972,-0.1975,-0.1966,-0.1968,-0.1971,-0.1979,-0.1981,-0.2061,-0.2084,-0.2158,-0.2175,-0.217,-0.2153,-0.2088,-0.2111,-0.2043,-0.1983,-0.1976,-0.1907,-0.1848,-0.1587,-0.1547,-0.1817,-0.1817,-0.1818,-0.1818,0,-0.1932,-0.1945,-0.1943,-0.1944,-0.1956,-0.1962,-0.196,-0.2015,-0.2008,-0.2116,-0.2112,-0.2202,-0.2143,-0.2162,-0.2036,-0.2064,-0.1942,-0.1968,-0.1849,-0.1836,-0.1712,-0.1689,-0.1976,-0.1976,-0.1977,-0.1977,-0.1978,0,-0.1933,-0.192,-0.1938,-0.1949,-0.1914,-0.1943,-0.1939,-0.1963,-0.2017,-0.2022,-0.2129,-0.2109,-0.2147,-0.2087,-0.2044,-0.1906,-0.1957,-0.1848,-0.1812,-0.1713,-0.1693,-0.1929,-0.1926,-0.1969,-0.1971,-0.1973,-0.1974,0,-0.1892,-0.1925,-0.1893,-0.1915,-0.1901,-0.187,-0.1847,-0.1857,-0.1924,-0.1912,-0.1933,-0.198,-0.1915,-0.1917,-0.1855,-0.1832,-0.1766,-0.172,-0.1537,-0.1487,-0.1621,-0.1623,-0.1559,-0.1555,-0.1552,-0.155,-0.1548,0,-0.1865,-0.186,-0.1822,-0.1792,-0.1803,-0.1769,-0.1742,-0.1788,-0.1797,-0.1815,-0.1796,-0.1763,-0.1728,-0.1602,-0.1588,-0.1516,-0.1624,-0.1364,-0.1443,-0.1623,-0.1593,-0.1599,-0.1605,-0.123,-0.1226,-0.1222,-0.1219,0,-0.1786,-0.1776,-0.1753,-0.1693,-0.1655,-0.1583,-0.157,-0.1555,-0.1616,-0.1614,-0.159,-0.1568,-0.1472,-0.1363,-0.1298,-0.1266,-0.1384,-0.1287,-0.1538,-0.1389,-0.1308,-0.1281,-0.1298,-0.1187,-0.119,-0.1192,-0.1194,-0.1196,-0.1676,-0.1639,-0.1616,-0.1533,-0.1492,-0.1423,-0.1343,-0.1375,-0.134,-0.1338,-0.1384,-0.1302,-0.1275,-0.1114,-0.1058,-0.103,-0.1135,-0.111,-0.1123,-0.114,-0.1172,-0.1096,-0.093,-0.0932,-0.0933,-0.0935,-0.0936,0,-0.1544,-0.1522,-0.1453,-0.1357,-0.1262,-0.1287,-0.1231,-0.1171,-0.1119,-0.1149,-0.1136,-0.0988,-0.0897,-0.0882,-0.0778,-0.0769,-0.0791,-0.0754,-0.0784,-0.0815,-0.0842,-0.0864,-0.0537,-0.0536,-0.0536,-0.0535,0,0,-0.1476,-0.1384,-0.135,-0.1137,-0.1089,-0.0945,-0.0897,-0.0858,-0.0858,-0.0819,-0.0789,-0.0852,-0.0834,-0.0682,-0.0655,-0.0577,-0.0698,-0.0551,-0.0865,-0.093,-0.0957,-0.1033,-0.1099,0,0,0,0,0]},{"header":{"parameterUnit":"m.s-1","parameterCategory":2,"la1":30.2991,"la2":30.254,"lo1":-89.0895,"lo2":-89.0444,"dy":0.0017,"dx":0.0017,"nx":28,"ny":28,"refTime":"2024-04-17T21:00:00:Z","depth":"2","parameterNumber":3,"parameterNumberName":"V-component_of_CURRENTS"},"data":[0,0,0,0,0,0,0,0,0,0,0,0,0,0,0,0,0,0,0,0,0,0,0,0,0,0,0,0,0,0,0,0,0,0,0,0,0,0,0,0,0,0,0,0,0,0,0,0,0,0,0,0,0,0,0,0,0,0,-0.0437,-0.0437,0,-0.0395,-0.0394,-0.0394,-0.0303,-0.0302,-0.03,-0.0299,-0.0113,-0.011,-0.0106,0,0,0,0,0,0,0,0,0,0,0,0,0,-0.0426,-0.0427,-0.0437,-0.0437,-0.0437,-0.0395,-0.0394,-0.0393,-0.0304,-0.0302,-0.03,-0.0298,-0.0114,-0.011,-0.0106,0,0,0,0,0,0,0,0,0,0,0,0,0,-0.0409,-0.0427,-0.0437,-0.039,-0.0385,-0.0396,-0.0394,-0.0393,-0.0304,-0.0302,-0.0299,-0.0297,-0.0116,-0.011,-0.0105,-0.0117,0,0,-0.0089,-0.0087,0,0,0,0,0,0,0,0,-0.041,-0.0409,-0.0397,-0.0393,-0.0388,-0.0355,-0.0323,-0.0295,-0.0305,-0.0331,-0.0299,-0.0296,-0.0185,-0.0174,-0.0168,-0.0108,-0.01,-0.0088,-0.0085,-0.0083,-0.0081,0,0,0,0,0,0,0,-0.0411,-0.041,-0.0417,-0.0397,-0.0392,-0.0366,-0.0361,-0.0317,-0.0265,-0.0328,-0.0323,-0.0325,-0.018,-0.0173,-0.0162,-0.0098,-0.0089,-0.0084,-0.008,-0.0078,0.0004,0.0003,0,0,0,0,0,0,-0.0427,-0.0412,-0.0418,-0.0416,-0.0398,-0.0369,-0.0362,-0.0365,-0.0269,-0.0254,-0.0327,-0.0321,-0.0183,-0.0169,-0.0155,-0.0093,-0.0083,-0.0078,-0.0075,0.0005,0.0004,0.0003,0,0,0,0,0,0,-0.0427,-0.0428,-0.042,-0.0415,-0.0413,-0.0372,-0.0375,-0.0366,-0.0335,-0.027,-0.0251,-0.0303,-0.0181,-0.0163,-0.0104,-0.0087,-0.0075,-0.0071,0.0007,0.0005,0.0004,-0.0013,0,0,0,0,0,0,-0.0427,-0.0429,-0.0429,-0.0417,-0.0414,-0.0398,-0.0377,-0.0367,-0.0343,-0.0334,-0.0244,-0.0226,-0.0178,-0.0113,-0.0099,-0.008,-0.0066,0.0008,0.0006,0.0004,-0.0012,-0.0015,-0.0018,0,0,0,0,0,-0.0427,-0.0438,-0.0429,-0.043,-0.0418,-0.0398,-0.0393,-0.0354,-0.0344,-0.032,-0.0276,-0.0228,-0.0115,-0.0109,-0.0092,-0.0071,0.0009,0.0006,0.0004,-0.001,-0.0015,-0.0018,0,0,0,0,0,0,-0.0439,-0.043,-0.042,-0.0429,-0.0403,-0.0383,-0.0374,-0.0353,-0.0305,-0.0299,-0.0232,-0.0211,-0.0156,-0.0125,-0.0121,-0.006,-0.0049,-0.0048,-0.0065,-0.0069,-0.0072,-0.0057,-0.0062,0,0,0,0,0,-0.0445,-0.0446,-0.0428,-0.0434,-0.0425,-0.04,-0.0389,-0.0365,-0.0331,-0.0307,-0.025,-0.0203,-0.0161,-0.0122,-0.0081,-0.0043,-0.0009,-0.0026,-0.0029,-0.0032,-0.0013,0.0037,0.0041,-0.0004,-0.0004,-0.0004,0,0,-0.0457,-0.0451,-0.0453,-0.0435,-0.0421,-0.0393,-0.0385,-0.0371,-0.0337,-0.0296,-0.0234,-0.0208,-0.0157,-0.0112,-0.0086,-0.0075,-0.0009,-0.0035,-0.0037,-0.0016,0.0035,0.004,0.0044,-0.0006,-0.0006,-0.0005,0,0,-0.0469,-0.0471,-0.0464,-0.0438,-0.0415,-0.0396,-0.0389,-0.036,-0.0331,-0.0288,-0.0257,-0.0218,-0.0151,-0.0108,-0.008,-0.0081,-0.0033,-0.0083,-0.0071,-0.0024,-0.0019,-0.0014,0.0012,0.002,-0.0078,-0.0079,-0.0079,0,-0.0485,-0.0471,-0.0457,-0.043,-0.0416,-0.0393,-0.0372,-0.034,-0.0291,-0.0279,-0.0263,-0.0189,-0.0142,-0.0087,-0.0089,-0.008,-0.0061,-0.0054,-0.0025,-0.0019,-0.0013,0.0013,0.0022,-0.008,-0.0079,-0.0079,-0.0079,0,-0.0476,-0.0457,-0.0454,-0.041,-0.0384,-0.0373,-0.033,-0.0301,-0.0282,-0.0258,-0.0212,-0.0163,-0.0118,-0.0107,-0.0089,-0.004,-0.0043,-0.0037,-0.0006,-0.0009,0.0017,0.0027,-0.0081,-0.0081,-0.008,-0.008,0,0,-0.0559,-0.0466,-0.0469,-0.044,-0.038,-0.037,-0.0314,-0.0277,-0.0257,-0.0208,-0.0179,-0.0115,-0.0112,-0.0082,-0.0062,-0.0016,0.0032,-0.0012,-0.001,0.0028,0.0119,0.0137,0.0149,0.0041,0.0043,0.0044,0.0115,0,-0.0567,-0.0516,-0.0465,-0.0422,-0.0398,-0.0349,-0.0304,-0.0263,-0.023,-0.0192,-0.0149,-0.0114,-0.0095,-0.0087,-0.0035,0.0012,0.0059,0.0012,0.0105,0.0108,0.0137,0.0162,0.0132,0.0195,0.0124,0.0126,0.0127,0,-0.0585,-0.055,-0.0509,-0.0435,-0.0425,-0.0392,-0.0348,-0.0301,-0.0236,-0.0211,-0.0163,-0.0133,-0.0063,-0.0052,0.0061,0.0024,0.0076,0.0118,0.0122,0.016,0.0145,0.0189,0.0216,0.0144,0.0142,0.0141,0.014,0,-0.0673,-0.0589,-0.0565,-0.0539,-0.0449,-0.0434,-0.0392,-0.0325,-0.0293,-0.0229,-0.0204,-0.0126,-0.0085,-0.0003,0.0087,0.0072,0.021,0.0199,0.0268,0.0268,0.0276,0.0274,0.0294,0.0294,0.0294,0.0294,0.0293,0,-0.0723,-0.0704,-0.0606,-0.0602,-0.0582,-0.0499,-0.0473,-0.0423,-0.0347,-0.0303,-0.023,-0.0175,-0.0069,0.0019,0.0093,0.0215,0.0219,0.0289,0.0301,0.0264,0.0261,0.0244,0.0238,0.0296,0.0296,0.0295,0.0295,0,-0.0825,-0.0755,-0.0727,-0.0648,-0.0622,-0.0618,-0.0521,-0.0498,-0.0417,-0.0351,-0.033,-0.0208,-0.0085,0.0022,0.0162,0.0226,0.0333,0.0375,0.0315,0.032,0.0353,0.0344,0.0458,0.046,0.0461,0.0462,0.0463,0,-0.0865,-0.086,-0.0788,-0.0782,-0.0751,-0.0707,-0.0673,-0.0561,-0.0511,-0.036,-0.0333,-0.02,-0.009,0.0114,0.0249,0.039,0.0382,0.0436,0.0419,0.0377,0.0377,0.0366,0.0356,0.0407,0.0408,0.0408,0.0408,0,-0.0952,-0.0931,-0.0911,-0.0896,-0.0868,-0.0814,-0.0742,-0.0713,-0.0564,-0.0473,-0.0331,-0.0231,-0.001,0.0155,0.0331,0.04,0.0409,0.0448,0.0441,0.037,0.0335,0.0332,0.0323,0.0411,0.0411,0.041,0.041,0.041,-0.1019,-0.1037,-0.1014,-0.0988,-0.0967,-0.0928,-0.0881,-0.079,-0.0691,-0.0548,-0.0376,-0.0204,-0.0005,0.0234,0.0376,0.0475,0.0475,0.0484,0.048,0.0477,0.0458,0.0428,0.0516,0.0517,0.0517,0.0517,0.0517,0,-0.1095,-0.1098,-0.1097,-0.1057,-0.1034,-0.1001,-0.0923,-0.0852,-0.0741,-0.06,-0.0423,-0.0166,0.0034,0.0209,0.0392,0.0523,0.0494,0.0515,0.0461,0.0458,0.0455,0.0433,0.0486,0.0486,0.0487,0.0487,0,0,-0.1135,-0.1153,-0.1129,-0.1095,-0.1079,-0.1022,-0.0981,-0.0894,-0.0774,-0.0622,-0.0478,-0.027,0.0012,0.014,0.0314,0.0402,0.0381,0.0389,0.04,0.0312,0.0308,0.0424,0.0385,0,0,0,0,0]}],[{"header":{"parameterUnit":"m.s-1","parameterCategory":2,"la1":30.2991,"la2":30.254,"lo1":-89.0895,"lo2":-89.0444,"dy":0.0017,"dx":0.0017,"nx":28,"ny":28,"refTime":"2024-04-17T21:00:00:Z","depth":"4","parameterNumber":2,"parameterNumberName":"U-component_of_CURRENTS"},"data":[0,0,0,0,0,0,0,0,0,0,0,0,0,0,0,0,0,0,0,0,0,0,0,0,0,0,0,0,0,0,0,0,0,0,0,0,0,0,0,0,0,0,0,0,0,0,0,0,0,0,0,0,0,0,0,0,0,0,-0.0783,-0.0783,0,-0.0784,-0.0784,-0.0784,-0.0787,-0.0787,-0.0788,-0.0788,-0.0761,-0.0761,-0.076,0,0,0,0,0,0,0,0,0,0,0,0,0,-0.0769,-0.0769,-0.0783,-0.0783,-0.0783,-0.0784,-0.0784,-0.0784,-0.0787,-0.0787,-0.0788,-0.0788,-0.0762,-0.0761,-0.076,0,0,0,0,0,0,0,0,0,0,0,0,0,-0.0772,-0.0769,-0.0783,-0.0786,-0.0787,-0.0784,-0.0784,-0.0784,-0.0787,-0.0787,-0.0788,-0.0788,-0.0762,-0.0761,-0.076,-0.0746,0,0,-0.0755,-0.0755,0,0,0,0,0,0,0,0,-0.0772,-0.0772,-0.0786,-0.0786,-0.0786,-0.0787,-0.0769,-0.077,-0.0787,-0.0786,-0.0788,-0.0788,-0.0768,-0.0766,-0.0764,-0.0744,-0.0743,-0.0755,-0.0755,-0.0754,-0.0754,0,0,0,0,0,0,0,-0.0771,-0.0772,-0.0782,-0.0786,-0.0786,-0.0782,-0.0783,-0.0769,-0.0774,-0.0786,-0.0786,-0.0788,-0.0768,-0.0766,-0.0764,-0.0743,-0.0755,-0.0754,-0.0753,-0.0753,-0.0743,-0.0744,0,0,0,0,0,0,-0.0774,-0.0772,-0.0782,-0.0782,-0.0781,-0.0782,-0.0783,-0.0785,-0.0775,-0.0774,-0.0788,-0.0788,-0.0768,-0.0765,-0.0763,-0.0778,-0.0754,-0.0753,-0.0752,-0.0743,-0.0743,-0.0744,0,0,0,0,0,0,-0.0774,-0.0775,-0.0782,-0.0778,-0.0779,-0.0782,-0.0785,-0.0785,-0.0797,-0.0777,-0.0775,-0.0801,-0.0768,-0.0765,-0.0759,-0.0776,-0.0752,-0.0751,-0.0742,-0.0743,-0.0744,-0.0788,0,0,0,0,0,0,-0.0774,-0.0775,-0.0783,-0.0778,-0.0779,-0.079,-0.0785,-0.0785,-0.0798,-0.0798,-0.0787,-0.0784,-0.0768,-0.0761,-0.0758,-0.0774,-0.075,-0.0741,-0.0742,-0.0743,-0.0786,-0.079,-0.0794,0,0,0,0,0,-0.0773,-0.0782,-0.0783,-0.0785,-0.0788,-0.0791,-0.0791,-0.0793,-0.0798,-0.0805,-0.0795,-0.0785,-0.0765,-0.076,-0.0756,-0.0772,-0.0741,-0.0742,-0.0743,-0.0784,-0.0789,-0.0794,0,0,0,0,0,0,-0.0778,-0.0783,-0.0784,-0.0794,-0.0797,-0.0792,-0.0802,-0.0803,-0.0802,-0.0803,-0.0787,-0.0783,-0.0785,-0.0771,-0.0766,-0.0773,-0.0754,-0.0754,-0.0786,-0.0791,-0.0795,-0.081,-0.0749,0,0,0,0,0,-0.0783,-0.0794,-0.0793,-0.0803,-0.0808,-0.0808,-0.0813,-0.0811,-0.0808,-0.0809,-0.0803,-0.0794,-0.0785,-0.0783,-0.077,-0.0771,-0.0782,-0.0781,-0.0785,-0.0788,-0.0798,-0.0824,-0.0832,-0.0748,-0.0748,-0.0748,0,0,-0.0788,-0.0793,-0.0799,-0.0806,-0.0811,-0.0813,-0.0812,-0.0821,-0.0827,-0.0804,-0.0817,-0.0806,-0.0787,-0.0789,-0.0789,-0.0781,-0.082,-0.079,-0.0793,-0.0801,-0.0826,-0.0834,-0.0842,-0.0749,-0.0749,-0.0748,0,0,-0.0798,-0.0809,-0.0819,-0.0821,-0.0829,-0.0827,-0.0834,-0.0837,-0.0847,-0.0849,-0.0838,-0.0841,-0.0826,-0.0822,-0.0815,-0.0835,-0.0839,-0.0832,-0.0867,-0.0892,-0.0899,-0.0906,-0.0943,-0.0953,-0.0836,-0.0837,-0.0837,0,-0.0804,-0.0815,-0.0822,-0.0828,-0.0839,-0.0837,-0.0848,-0.085,-0.0851,-0.0867,-0.0858,-0.086,-0.0843,-0.0854,-0.0859,-0.0845,-0.0865,-0.085,-0.0899,-0.0905,-0.0911,-0.0948,-0.0958,-0.0839,-0.0839,-0.0838,-0.0838,0,-0.0811,-0.0824,-0.0833,-0.0841,-0.0853,-0.0862,-0.0868,-0.0885,-0.0896,-0.0896,-0.092,-0.0903,-0.091,-0.0903,-0.0884,-0.092,-0.0923,-0.09,-0.0889,-0.0923,-0.0959,-0.0968,-0.0842,-0.0841,-0.0841,-0.084,0,0,-0.0806,-0.0835,-0.0838,-0.0855,-0.0864,-0.0877,-0.0899,-0.0923,-0.0953,-0.0949,-0.0988,-0.0972,-0.0976,-0.0969,-0.0957,-0.0973,-0.103,-0.0959,-0.096,-0.1002,-0.1103,-0.0986,-0.0986,-0.1019,-0.1021,-0.1022,-0.1116,0,-0.0811,-0.0836,-0.0851,-0.0878,-0.0891,-0.0912,-0.0941,-0.0962,-0.0981,-0.1013,-0.1009,-0.1028,-0.0996,-0.1011,-0.1023,-0.1029,-0.1055,-0.1007,-0.1059,-0.1061,-0.0957,-0.0992,-0.1027,-0.1123,-0.1126,-0.1127,-0.1128,0,-0.0803,-0.0827,-0.0859,-0.0916,-0.0929,-0.0948,-0.1014,-0.1038,-0.1073,-0.1094,-0.1112,-0.1104,-0.1131,-0.1094,-0.1139,-0.1113,-0.1117,-0.1116,-0.1119,-0.1001,-0.0961,-0.1079,-0.1146,-0.1144,-0.1143,-0.1142,-0.1141,0,-0.0791,-0.0834,-0.0871,-0.088,-0.0934,-0.0975,-0.1017,-0.1065,-0.1111,-0.1148,-0.1183,-0.1197,-0.1222,-0.1227,-0.1204,-0.1192,-0.1245,-0.1227,-0.1131,-0.1124,-0.1184,-0.1175,-0.1264,-0.1264,-0.1264,-0.1264,-0.1263,0,-0.0779,-0.0808,-0.0872,-0.0885,-0.0946,-0.099,-0.1069,-0.1105,-0.1177,-0.1212,-0.1229,-0.1244,-0.1257,-0.1267,-0.1246,-0.121,-0.1282,-0.1148,-0.1138,-0.1201,-0.1194,-0.1192,-0.1182,-0.1267,-0.1266,-0.1266,-0.1265,0,-0.0742,-0.0786,-0.0824,-0.0902,-0.0935,-0.0977,-0.1102,-0.1151,-0.1228,-0.1276,-0.1292,-0.1319,-0.1312,-0.1309,-0.1315,-0.1261,-0.1236,-0.1202,-0.1285,-0.1276,-0.1103,-0.1095,-0.1139,-0.1136,-0.1133,-0.113,-0.1128,0,-0.0723,-0.0738,-0.0823,-0.0856,-0.0894,-0.0982,-0.1041,-0.1151,-0.1195,-0.1286,-0.1288,-0.1319,-0.1306,-0.1241,-0.1237,-0.121,-0.1173,-0.1184,-0.1128,-0.1103,-0.109,-0.1086,-0.1081,-0.1124,-0.1123,-0.1122,-0.1121,0,-0.0674,-0.0709,-0.0743,-0.081,-0.0875,-0.0951,-0.1041,-0.1078,-0.1177,-0.1271,-0.1238,-0.1212,-0.12,-0.1159,-0.1141,-0.111,-0.1191,-0.1154,-0.116,-0.1108,-0.1085,-0.1073,-0.1073,-0.1111,-0.1113,-0.1114,-0.1114,0,-0.063,-0.0645,-0.0694,-0.0749,-0.0826,-0.0872,-0.0946,-0.0992,-0.1057,-0.1153,-0.1126,-0.1135,-0.1171,-0.1107,-0.108,-0.1046,-0.103,-0.1002,-0.1015,-0.1027,-0.0936,-0.0888,-0.0853,0,0,0,0,0,-0.0572,-0.0589,-0.0635,-0.0688,-0.0761,-0.0802,-0.0912,-0.0985,-0.1086,-0.1031,-0.1082,-0.1042,-0.0994,-0.0998,-0.0936,-0.1032,-0.1039,-0.0958,-0.1016,-0.1056,-0.1067,-0.0964,0,0,0,0,0,0,-0.0535,-0.0569,-0.06,-0.0616,-0.064,-0.0711,-0.0772,-0.0847,-0.0831,-0.0924,-0.0895,-0.0968,-0.093,-0.0993,-0.0903,-0.0909,-0.0924,-0.098,-0.0977,-0.1049,-0.106,-0.1069,-0.0967,0,0,0,0,0]},{"header":{"parameterUnit":"m.s-1","parameterCategory":2,"la1":30.2991,"la2":30.254,"lo1":-89.0895,"lo2":-89.0444,"dy":0.0017,"dx":0.0017,"nx":28,"ny":28,"refTime":"2024-04-17T21:00:00:Z","depth":"4","parameterNumber":3,"parameterNumberName":"V-component_of_CURRENTS"},"data":[0,0,0,0,0,0,0,0,0,0,0,0,0,0,0,0,0,0,0,0,0,0,0,0,0,0,0,0,0,0,0,0,0,0,0,0,0,0,0,0,0,0,0,0,0,0,0,0,0,0,0,0,0,0,0,0,0,0,-0.0196,-0.0196,0,-0.0185,-0.0185,-0.0185,-0.0181,-0.0181,-0.0181,-0.0181,-0.0143,-0.0142,-0.0141,0,0,0,0,0,0,0,0,0,0,0,0,0,-0.0176,-0.0176,-0.0196,-0.0196,-0.0196,-0.0185,-0.0185,-0.0185,-0.0181,-0.0181,-0.0181,-0.0181,-0.0143,-0.0142,-0.0141,0,0,0,0,0,0,0,0,0,0,0,0,0,-0.0177,-0.0177,-0.0196,-0.0193,-0.0192,-0.0185,-0.0185,-0.0185,-0.0181,-0.0181,-0.0181,-0.0181,-0.0144,-0.0142,-0.014,-0.0129,0,0,-0.0136,-0.0135,0,0,0,0,0,0,0,0,-0.0177,-0.0177,-0.0193,-0.0193,-0.0193,-0.0185,-0.0164,-0.0165,-0.0181,-0.0185,-0.0181,-0.0181,-0.0154,-0.0152,-0.015,-0.0127,-0.0125,-0.0135,-0.0134,-0.0134,-0.0133,0,0,0,0,0,0,0,-0.0177,-0.0178,-0.0192,-0.0193,-0.0193,-0.0179,-0.0179,-0.0164,-0.0169,-0.0185,-0.0185,-0.0184,-0.0154,-0.0151,-0.0149,-0.0125,-0.0135,-0.0134,-0.0133,-0.0132,-0.0082,-0.0081,0,0,0,0,0,0,-0.018,-0.0178,-0.0192,-0.0191,-0.0185,-0.0179,-0.018,-0.0187,-0.017,-0.0167,-0.0183,-0.0183,-0.0154,-0.0151,-0.0147,-0.0132,-0.0134,-0.0132,-0.0131,-0.0082,-0.0081,-0.0081,0,0,0,0,0,0,-0.018,-0.0182,-0.0193,-0.0184,-0.0184,-0.018,-0.0188,-0.0187,-0.0188,-0.0169,-0.0166,-0.0186,-0.0154,-0.015,-0.0138,-0.013,-0.0132,-0.013,-0.0082,-0.0082,-0.0081,-0.0101,0,0,0,0,0,0,-0.018,-0.0182,-0.019,-0.0184,-0.0185,-0.019,-0.0188,-0.0187,-0.0187,-0.0187,-0.017,-0.0167,-0.0154,-0.014,-0.0136,-0.0128,-0.0129,-0.0083,-0.0082,-0.0081,-0.01,-0.0101,-0.0101,0,0,0,0,0,-0.0179,-0.0189,-0.0191,-0.0192,-0.0196,-0.019,-0.0189,-0.0186,-0.0187,-0.0188,-0.0178,-0.0167,-0.0132,-0.0139,-0.0134,-0.0125,-0.0083,-0.0082,-0.0081,-0.01,-0.0101,-0.0101,0,0,0,0,0,0,-0.0187,-0.019,-0.0191,-0.0203,-0.0198,-0.019,-0.0192,-0.0189,-0.0182,-0.0185,-0.0167,-0.0162,-0.0149,-0.0134,-0.0141,-0.0107,-0.0104,-0.0102,-0.012,-0.012,-0.012,-0.0115,-0.0127,0,0,0,0,0,-0.0192,-0.0201,-0.0197,-0.0207,-0.0206,-0.02,-0.0199,-0.0197,-0.0189,-0.0187,-0.0173,-0.0156,-0.014,-0.0129,-0.0115,-0.0097,-0.0073,-0.0086,-0.0086,-0.0087,-0.0078,-0.0031,-0.0026,-0.0078,-0.0078,-0.0078,0,0,-0.0198,-0.0201,-0.0207,-0.0209,-0.0207,-0.0205,-0.02,-0.0201,-0.0198,-0.0183,-0.0174,-0.016,-0.0138,-0.0121,-0.0112,-0.0107,-0.0062,-0.0085,-0.0086,-0.0077,-0.003,-0.0024,-0.002,-0.0078,-0.0078,-0.0078,0,0,-0.021,-0.0219,-0.0227,-0.0224,-0.0222,-0.0215,-0.0216,-0.0208,-0.0204,-0.0194,-0.0181,-0.0162,-0.014,-0.0117,-0.0104,-0.0095,-0.007,-0.0091,-0.0083,-0.0037,-0.0033,-0.0028,-0.0007,-0.0,-0.0086,-0.0086,-0.0086,0,-0.0218,-0.023,-0.0227,-0.023,-0.023,-0.022,-0.0223,-0.0214,-0.0201,-0.0192,-0.0193,-0.0149,-0.0135,-0.0101,-0.01,-0.0094,-0.0072,-0.0086,-0.0038,-0.0033,-0.0027,-0.0007,0.0001,-0.0086,-0.0086,-0.0086,-0.0086,0,-0.0234,-0.0241,-0.0246,-0.0247,-0.0242,-0.0246,-0.0232,-0.0222,-0.0214,-0.0201,-0.0173,-0.0149,-0.0118,-0.0111,-0.0104,-0.006,-0.0059,-0.0049,-0.0038,-0.0023,-0.0003,0.0006,-0.0088,-0.0087,-0.0087,-0.0087,0,0,-0.0259,-0.0258,-0.026,-0.0263,-0.0255,-0.0254,-0.0239,-0.0222,-0.0208,-0.0188,-0.0164,-0.0134,-0.0117,-0.01,-0.0081,-0.004,0.0002,-0.0031,-0.0028,-0.0013,0.0089,0.0068,0.0075,0.0023,0.0024,0.0026,0.0083,0,-0.0274,-0.0289,-0.0277,-0.0283,-0.0291,-0.0268,-0.0252,-0.0233,-0.021,-0.0182,-0.0147,-0.0122,-0.0113,-0.0098,-0.0056,-0.0013,0.0026,-0.0015,0.0076,0.0078,0.0056,0.0085,0.0031,0.009,0.0092,0.0093,0.0094,0,-0.0296,-0.0304,-0.0319,-0.0305,-0.0304,-0.03,-0.0271,-0.0255,-0.0208,-0.0187,-0.0146,-0.012,-0.0068,-0.0061,0.0032,0.0005,0.0047,0.0083,0.0086,0.0083,0.0074,0.0077,0.0109,0.0108,0.0107,0.0106,0.0105,0,-0.0331,-0.0329,-0.0346,-0.0346,-0.0328,-0.0322,-0.0306,-0.0264,-0.0248,-0.0192,-0.017,-0.0103,-0.0074,-0.0002,0.0058,0.0052,0.0161,0.0161,0.0184,0.0182,0.0191,0.0186,0.024,0.024,0.024,0.024,0.024,0,-0.0358,-0.0371,-0.0367,-0.038,-0.0387,-0.0357,-0.0347,-0.0315,-0.0267,-0.0244,-0.0182,-0.0145,-0.0055,0.001,0.007,0.0147,0.0171,0.0195,0.0205,0.0178,0.0171,0.0196,0.019,0.0242,0.0242,0.0241,0.0241,0,-0.0399,-0.0397,-0.0418,-0.041,-0.0411,-0.0419,-0.0392,-0.0378,-0.032,-0.0285,-0.027,-0.0176,-0.0086,-0.0001,0.0115,0.0152,0.0233,0.0256,0.0208,0.0213,0.022,0.0212,0.0292,0.0292,0.0292,0.0292,0.0292,0,-0.0419,-0.0438,-0.0457,-0.0478,-0.048,-0.0483,-0.0483,-0.0425,-0.0406,-0.0304,-0.0293,-0.0193,-0.0127,0.0013,0.0111,0.0229,0.0242,0.0276,0.0264,0.0228,0.023,0.0223,0.0215,0.0292,0.0292,0.0292,0.0292,0,-0.0457,-0.0471,-0.0488,-0.0537,-0.0555,-0.0565,-0.0556,-0.0542,-0.0462,-0.0406,-0.0311,-0.0214,-0.0111,0.0004,0.0095,0.0181,0.0251,0.0276,0.0277,0.0266,0.0229,0.0229,0.0222,0.0292,0.0292,0.0292,0.0292,0,-0.0483,-0.0509,-0.0541,-0.0578,-0.0616,-0.0638,-0.0623,-0.058,-0.0541,-0.0415,-0.0385,-0.0244,-0.0151,-0.002,0.0067,0.0147,0.0166,0.0182,0.0188,0.0189,0.014,0.0077,0.0113,0,0,0,0,0,-0.0496,-0.0529,-0.0576,-0.0616,-0.066,-0.0674,-0.0665,-0.0634,-0.0551,-0.0498,-0.0434,-0.0331,-0.0165,-0.0083,-0.0009,0.0051,0.0164,0.0139,0.0179,0.0291,0.0291,0.025,0,0,0,0,0,0,-0.0504,-0.0553,-0.0579,-0.0644,-0.0676,-0.0713,-0.071,-0.0658,-0.0613,-0.0517,-0.0435,-0.0328,-0.0179,-0.0215,-0.0013,0.0018,0.005,0.0235,0.0237,0.0291,0.0291,0.0291,0.0249,0,0,0,0,0]}]]